Regional Weather Roundup
Issued by NWS

Home | Current Version | Previous Version | Text Only | Print | Product List | Glossary On
Versions: 1 2 3 4 5 6 7 8 9 10 11 12 13 14 15 16 17 18 19 20 21 22 23 24 25 26 27 28 29 30 31 32 33 34 35 36 37 38 39 40 41 42 43 44 45 46 47 48 49 50
000
ASUS42 KFFC 220903
RWRGA
WEATHER ROUNDUP FOR GEORGIA
NATIONAL WEATHER SERVICE PEACHTREE CITY GA
500 AM EDT MON SEP 22 2014

NOTE: "FAIR" INDICATES FEW OR NO CLOUDS BELOW 12,000 FEET WITH NO
SIGNIFICANT WEATHER AND/OR OBSTRUCTIONS TO VISIBILITY.

* = USE WITH CAUTION. THE STATIONS MARKED WITH AN ASTERISK MAY NOT
REPORT WEATHER SUCH AS PRECIPITATION, FOG, OR THUNDER AND ARE NOT
QUALITY CONTROLLED BY NWS.

THE REMARK "TC" DENOTES TEMPERATURE READING IN DEGREES CELSIUS.

GAZ001>058-221000-
NORTH GEORGIA

CITY           SKY/WX    TMP DP  RH WIND       PRES   REMARKS
ATLANTA        CLOUDY    70  65  84 NW9       29.99R
ATHENS         MOCLDY    70  67  90 CALM      29.97R
CHAMBLEE       CLOUDY    69  63  81 NW8       29.99S
PEACHTREE CITY RAIN      70  66  87 NW13      30.00S FOG
ROME           CLEAR     64  55  72 NW7       30.01R
WEST ATLANTA   CLOUDY    70  60  70 VRB7      29.99R
GAINESVILLE    PTCLDY    69  59  70 NW7       30.00S
CARTERSVILLE   PTCLDY    62  58  86 CALM      30.02R


CITY           SKY/WX    TMP DP  RH WIND       PRES   REMARKS
DALTON*        CLEAR     61  55  82 CALM      30.02S
MARIETTA       CLOUDY    68  61  78 NW7       30.00S
$$

GAZ059>098-102>109-221000-
CENTRAL GEORGIA

CITY           SKY/WX    TMP DP  RH WIND       PRES   REMARKS
AUGUSTA-BUSH   CLOUDY    72  62  71 SW6       29.94S
AUGUSTA-DANIEL CLOUDY    75  62  64 VRB3      29.95F
COLUMBUS       MOCLDY    70  63  78 N5        29.98S
MACON          PTCLDY    69  63  81 W6        29.96F
ROBINS AFB     PTCLDY    74  63  68 SW8       29.96F


CITY           SKY/WX    TMP DP  RH WIND       PRES   REMARKS
LAGRANGE*      CLOUDY    73  69  89 NW8       29.99S
SYLVANIA*      CLEAR     72  67  86 CALM      29.97S
$$

GAZ099>101-110>166-221000-
SOUTH GEORGIA

CITY           SKY/WX    TMP DP  RH WIND       PRES   REMARKS
SAVANNAH       CLEAR     68  61  78 SW3       29.97S
VALDOSTA       CLEAR     62  61  96 S3        29.99R
ALMA           CLEAR     63  59  87 CALM      29.98S
ST SIMONS      CLEAR     70  63  78 SW7       29.99R
FT STEWART     CLEAR     67  61  82 SW5       29.97S
ALBANY         CLEAR     65  62  90 CALM      30.01S
HUNTER AFB     CLEAR     67  62  85 W5        29.95F
MOODY AFB      CLEAR     63  61  93 E1        29.98S
BRUNSWICK      CLEAR     64  61  88 CALM      29.99R


CITY           SKY/WX    TMP DP  RH WIND       PRES   REMARKS
BAINBRIDGE*    CLEAR     66  64  94 CALM      29.99S
MOULTRIE*      CLEAR     64  64 100 CALM      30.00S
VIDALIA*       CLEAR     68  61  77 CALM      29.98S
DOUGLAS*       CLEAR     64  61  88 CALM      30.00S
$$


USA.gov is the U.S. government's official web portal to all federal, state and local government web resources and services.